Home > Weather > Volgograd > Past weeks

Flag for Russia Weather for the Past 2 Weeks in Volgograd, Russia

Now
28 °F

Clear.


Feels Like: 18 °F
Forecast: 22 / 35 °F
Wind: 13 mph from South

Location: Volgograd Airport

Current Time: Feb 10, 2016 at 12:14:42 AM

Latest Report: Feb 9, 2016 at 11:30 PM


Visibility: 10 mi

Pressure: 30.45 "Hg

Humidity: 80%

Dew point: 23 °F

Location of VolgogradLocation

Historic Weather in Volgograd — Graph

°F

Volgograd Temperature Yesterday

Maximum temperature yesterday: 37 °F (at 2:30 PM)
Minimum temperature yesterday: 23 °F (at 12:30 AM)
Average temperature yesterday: 29 °F

High & Low Weather Summary for the Past Weeks

 TemperatureHumidityPressure
High45 °F (Feb 5, 1:30 AM)100% (Jan 28, 6:30 AM)30.54 "Hg (Jan 28, 6:30 AM)
Low-13 °F (Jan 26, 8:00 AM)52% (Feb 8, 4:00 PM)29.74 "Hg (Feb 4, 11:30 PM)
Average27 °F87%30.10 "Hg
* Reported Jan 25 10:00 PM — Feb 9 10:30 PM, Volgograd, Weather by CustomWeather, © 2016

Note: Actual official high and low records may vary slightly from our data, if they occured in-between our weather recording intervals... More about our weather records

Advertising

Volgograd Weather History for the Previous 24 Hours

 ConditionsComfort  
Time TempWeatherWind HumidityBarometerVisibility
10:30 PM
Tue, Feb 9
28 °FClear.13 mph80%30.45 "Hg10 mi
10:00 PM28 °FClear.13 mph80%30.45 "Hg10 mi
9:30 PM28 °FClear.8 mph80%30.45 "Hg10 mi
9:00 PM30 °FClear.10 mph80%30.48 "Hg10 mi
8:30 PM30 °FClear.10 mph80%30.48 "Hg10 mi
8:00 PM30 °FClear.13 mph80%30.48 "Hg10 mi
7:30 PM30 °FClear.10 mph80%30.48 "Hg10 mi
7:00 PM30 °FClear.10 mph80%30.48 "Hg10 mi
6:30 PM30 °FClear.10 mph80%30.48 "Hg10 mi
6:00 PM32 °FClear.8 mph75%30.48 "Hg10 mi
5:30 PM32 °FClear.6 mph75%30.48 "Hg10 mi
5:00 PM34 °FSunny.8 mph70%30.48 "Hg10 mi
4:30 PM36 °FSunny.10 mph65%30.48 "Hg10 mi
4:00 PM36 °FSunny.13 mph65%30.48 "Hg10 mi
3:30 PM37 °FPassing clouds.10 mph56%30.48 "HgN/A
3:00 PM37 °FSunny.10 mph56%30.48 "Hg10 mi
2:30 PM37 °FSunny.10 mph52%30.48 "Hg10 mi
1:30 PM36 °FPassing clouds.8 mph60%30.48 "HgN/A
1:00 PM36 °FSunny.10 mph60%30.51 "Hg10 mi
12:30 PM36 °FSunny.10 mph65%30.51 "Hg10 mi
12:00 PM36 °FSunny.10 mph65%30.51 "Hg10 mi
11:00 AM34 °FSunny.8 mph70%30.51 "Hg10 mi
10:30 AM32 °FSunny.8 mph75%30.51 "Hg10 mi
10:00 AM32 °FSunny.8 mph75%30.51 "Hg10 mi
9:30 AM30 °FSunny.8 mph80%30.51 "Hg10 mi
9:00 AM28 °FSunny.6 mph80%30.51 "Hg10 mi
8:30 AM27 °FSunny.6 mph86%30.51 "Hg10 mi
7:30 AM23 °FSunny.6 mph86%30.51 "Hg10 mi
6:30 AM23 °FClear.6 mph86%30.51 "Hg10 mi
6:00 AM23 °FClear.6 mph93%30.51 "Hg10 mi
5:30 AM23 °FClear.6 mph93%30.51 "Hg10 mi
5:00 AM25 °FClear.3 mph86%30.51 "Hg10 mi
4:30 AM23 °FClear.3 mph93%30.51 "Hg10 mi
4:00 AM25 °FClear.1 mph93%30.51 "Hg10 mi
3:30 AM23 °FClear.3 mph93%30.51 "Hg10 mi
3:00 AM23 °FClear.3 mph93%30.54 "Hg10 mi
2:30 AM23 °FClear.3 mph93%30.54 "Hg10 mi
2:00 AM25 °FClear.3 mph93%30.54 "Hg10 mi
1:00 AM25 °FClear.3 mph86%30.54 "Hg10 mi
12:30 AM23 °FClear.3 mph93%30.54 "Hg10 mi
12:00 AM25 °FClear.3 mph86%30.54 "Hg10 mi
Weather by CustomWeather, © 2016

See weather overviewHow to use our weather pages